Simultaneous Nadir Overpasses (SNOs) Predictions

Prediction of SNOs between NOAA-20 and AQUA Satellite Orbit:

Table of predicted SNOs for the next 14.0 days since TLE Epoch: 12/24/2022
Index Date (NOAA-20) Time (NOAA-20) Lat,Lon (NOAA-20) SZA (NOAA-20 ) Date (AQUA) Time (AQUA) Lat,Lon (AQUA) SZA (AQUA ) Distance(km) Time Diff (sec)
1 12/26/2022 17:38:39 79.53, 172.37 115.33 12/26/2022 17:39:30 79.53, 172.39 115.29 0.34 51
2 12/26/2022 18:29:17 -79.76, -18.28 65.07 12/26/2022 18:28:50 -79.77, -18.19 65.07 1.79 27
3 12/29/2022 09:04:47 -79.67, 122.00 64.97 12/29/2022 09:05:23 -79.66, 121.88 64.98 2.44 36
4 12/29/2022 09:55:25 79.87, -68.80 114.68 12/29/2022 09:54:42 79.87, -68.87 114.72 1.57 43
5 01/01/2023 00:30:56 79.74, 71.14 114.78 01/01/2023 00:31:15 79.73, 70.99 114.79 3.16 19
6 01/01/2023 01:21:35 -79.94,-119.71 65.57 01/01/2023 01:20:36 -79.93,-119.80 65.51 1.82 59
7 01/03/2023 15:57:08 -79.75, 19.63 65.41 01/03/2023 15:57:10 -79.74, 19.59 65.40 0.91 2
8 01/03/2023 16:45:11 80.42,-114.94 105.81 01/03/2023 16:43:59 81.16,-113.40 106.23 86.57 72
9 01/06/2023 06:32:42 -79.51, 158.74 65.24 01/06/2023 06:33:44 -79.52, 158.87 65.31 2.59 62



Historial Predications of SNOs between NOAA-20 and AQUA
